Theta_e
342 344 346 349 349 350 350 350 350 350 350 350 349 349 349 349 349 349 349 349 350 350 350 349 349 348 347 346 346 346 345 344 344 344 344 343 343 343 342 342 348 348 348 348 347 348 348 345 346 344 342 342 342 344 343 343 342 342 342 342 343 340 338 338 337 338 339 338 340 340 340 341 342 343 344 344 344 344 343 344 343 341 340 343 346
343 345 345 346 348 349 350 350 350 350 350 350 350 349 348 348 349 349 348 348 349 349 350 349 349 348 347 346 346 346 345 344 343 344 343 343 342 341 341 343 349 348 348 348 347 348 345 346 344 343 346 343 341 342 342 343 342 342 341 342 342 341 337 337 336 337 338 338 339 338 338 340 340 340 341 342 343 343 342 342 343 340 339 346 345
344 345 346 346 348 349 349 349 350 351 351 350 350 349 349 349 348 348 348 347 348 349 349 349 349 349 348 347 346 346 345 344 343 342 342 342 341 341 341 346 348 347 346 347 348 345 344 343 342 345 344 342 341 342 342 342 342 343 343 341 340 336 337 337 336 337 337 337 337 338 339 338 337 338 339 339 341 341 339 340 342 342 339 344 344
344 345 345 346 346 348 349 349 350 350 350 349 349 350 348 348 348 348 349 348 347 348 348 348 349 348 347 347 346 346 345 344 344 343 341 341 340 341 342 345 347 347 347 347 347 346 343 343 342 342 340 340 341 342 342 341 342 343 344 341 339 337 337 337 337 336 337 336 336 334 333 330 333 338 338 338 339 340 338 338 339 340 342 343 344
343 344 345 345 346 346 349 349 349 350 350 349 349 349 349 350 350 349 349 349 347 347 347 347 347 347 347 346 346 345 345 344 343 342 342 341 341 340 343 347 347 347 347 348 347 346 343 342 341 341 340 340 341 341 340 341 342 343 343 343 340 338 337 337 337 336 336 335 335 333 329 330 331 337 338 338 338 337 337 338 338 339 339 340 342
343 344 345 345 345 346 348 350 350 350 350 349 349 349 349 349 349 349 349 348 347 347 347 346 346 346 346 346 345 344 344 344 343 342 342 341 341 341 346 347 347 347 347 347 347 345 342 341 341 341 340 340 341 340 340 341 342 342 343 343 336 338 337 336 336 335 335 334 333 329 328 329 330 332 338 338 339 337 336 336 337 337 337 337 339
343 344 345 345 345 345 346 350 350 350 349 349 348 348 349 349 348 348 348 348 347 346 346 345 345 346 346 346 345 344 343 343 343 342 341 340 347 346 347 346 346 346 347 347 346 343 342 341 340 340 340 340 340 340 340 341 342 343 343 341 341 339 338 337 336 335 334 330 326 326 327 328 329 330 337 338 337 337 336 337 338 338 338 337 337
344 345 345 345 344 345 346 350 349 349 349 349 348 348 348 348 347 346 348 347 346 346 345 345 345 345 346 345 344 344 343 343 343 341 340 342 347 346 345 345 346 346 345 346 345 342 341 341 340 340 340 340 340 340 340 340 342 343 342 342 342 341 340 338 337 336 333 327 326 326 326 327 329 331 337 337 338 338 338 338 337 337 337 337 334
341 345 345 344 344 344 347 348 350 349 349 349 349 348 348 348 347 347 346 347 346 346 345 345 344 344 345 345 344 342 342 343 342 341 340 341 344 345 345 345 344 344 345 346 344 342 341 340 340 340 340 339 339 339 339 340 341 342 342 342 342 340 339 338 337 336 333 331 331 329 328 328 329 330 337 338 338 336 336 336 336 337 340 337 336
342 344 344 344 344 343 345 349 349 349 349 349 348 348 348 348 347 347 347 346 346 346 345 344 344 345 345 344 343 343 342 342 341 341 339 338 341 342 343 343 343 343 344 344 343 340 339 338 339 339 340 339 338 338 338 338 340 341 341 341 341 340 338 337 336 334 331 331 332 333 334 335 331 332 336 339 338 338 338 335 335 335 336 337 337
343 343 344 344 344 344 348 349 349 349 349 349 348 348 348 348 347 347 346 346 346 345 345 344 344 345 344 344 343 342 341 341 340 339 339 338 340 341 341 341 342 341 341 342 342 341 339 339 338 339 339 338 338 337 337 338 339 340 339 340 340 339 337 335 333 330 330 330 330 331 334 336 332 333 338 339 340 339 336 336 336 336 336 337 338
343 343 343 343 345 343 347 348 349 349 349 348 348 348 347 347 347 346 346 346 345 345 344 343 343 344 343 343 342 341 341 340 340 339 338 337 338 339 339 340 339 339 338 338 338 337 337 336 337 338 338 337 336 336 337 337 338 339 339 337 337 336 335 333 330 329 329 329 330 331 332 332 332 334 338 339 340 339 336 337 336 337 336 336 337
342 342 343 343 343 341 345 348 347 349 349 348 348 348 347 347 346 346 346 345 345 345 344 343 343 343 343 342 342 341 340 340 340 339 338 338 338 337 336 337 336 335 335 335 335 335 336 336 337 338 337 335 335 336 336 336 336 337 337 337 336 335 333 332 329 329 329 329 329 330 330 331 332 337 337 337 339 338 336 339 335 336 338 337 336
341 341 342 342 343 345 342 345 346 348 348 348 348 347 347 346 346 345 345 345 344 344 343 342 342 342 342 342 341 340 340 340 339 339 339 338 338 337 336 335 335 335 334 334 334 334 335 334 335 337 335 335 335 335 335 335 336 335 335 333 332 331 329 328 329 327 327 328 330 330 331 331 332 336 337 337 339 337 337 338 337 336 336 336 335
341 341 341 342 342 343 342 341 344 345 346 347 347 347 347 346 347 346 345 345 344 344 343 342 341 342 342 341 341 340 340 339 339 338 337 337 336 336 336 335 334 334 333 333 333 333 333 333 334 335 334 334 334 334 334 334 334 334 333 332 331 329 326 324 324 324 326 327 327 329 329 330 336 336 338 337 337 337 337 337 336 335 335 334 334
342 341 341 340 340 341 341 342 339 342 342 345 345 345 346 347 346 346 345 344 344 343 342 341 341 341 341 340 340 340 339 339 338 337 337 337 336 336 335 335 335 333 332 332 331 331 332 332 333 333 333 333 333 332 332 332 332 332 331 330 328 327 325 323 322 322 323 325 326 327 328 331 334 335 337 337 338 336 336 336 336 335 334 333 333
342 341 340 339 339 339 340 341 338 335 337 339 340 342 344 345 346 346 345 344 344 343 342 341 340 340 340 339 338 338 338 337 337 337 336 335 335 335 335 334 333 332 332 331 331 331 332 331 332 332 332 332 331 331 332 332 332 331 329 328 327 326 324 323 322 321 322 324 326 326 327 329 333 335 334 337 336 335 334 334 334 334 334 333 332
341 340 339 339 338 339 340 338 336 338 338 336 335 338 341 344 344 343 343 343 343 343 341 340 340 339 337 336 336 337 337 337 336 336 335 335 335 334 333 332 332 332 331 332 331 331 331 331 331 331 331 330 330 330 331 331 330 328 327 326 325 324 321 320 319 321 322 323 323 326 327 332 333 333 337 336 336 335 333 333 333 332 332 330 328
340 340 339 339 338 338 339 337 338 338 337 337 338 338 336 339 340 340 340 341 341 340 339 338 335 334 333 331 331 330 331 332 333 333 333 333 332 330 331 331 332 332 331 331 331 330 329 330 329 329 328 328 328 329 329 329 327 326 325 323 322 320 319 318 318 318 319 320 321 324 328 332 333 334 335 334 334 334 334 334 332 331 329 327 326
337 339 339 339 338 338 338 337 338 338 337 337 338 338 334 334 338 339 338 339 338 336 335 333 329 327 325 325 324 324 324 324 325 327 328 330 328 326 328 330 330 331 330 330 329 329 328 328 327 326 325 325 325 325 326 326 326 324 322 321 319 317 316 316 317 318 319 320 322 324 330 332 333 334 334 334 334 334 333 333 330 327 327 327 326
336 335 336 339 339 338 338 338 338 338 338 337 338 339 335 332 333 332 333 334 334 333 331 326 322 320 320 320 320 321 321 322 322 322 321 323 321 323 327 328 329 329 329 329 328 327 326 325 324 323 322 321 318 319 320 323 323 322 320 318 316 314 314 315 316 317 319 321 323 327 331 331 332 334 334 334 334 333 332 331 331 330 330 329 327
331 331 333 336 338 338 337 338 338 338 338 338 340 339 335 336 336 335 334 333 330 326 327 326 324 321 320 321 321 320 320 321 321 323 321 322 321 321 323 326 326 327 327 326 326 325 324 323 322 320 320 318 314 308 311 316 318 318 317 315 313 312 312 312 313 315 317 321 324 327 331 331 331 333 333 333 333 332 331 330 330 330 329 328 327
330 329 331 333 336 338 338 338 338 338 338 337 339 337 338 338 338 337 334 331 330 330 329 326 323 322 322 322 321 320 320 320 320 321 320 318 320 320 322 324 325 325 324 323 322 321 321 320 320 318 316 313 306 305 306 308 309 312 312 311 310 310 310 310 311 312 314 318 324 328 330 330 331 333 334 333 332 330 330 329 329 327 327 327 326
330 330 330 333 334 335 336 338 338 337 337 336 338 338 339 339 338 337 335 333 333 332 330 327 324 324 324 324 322 320 320 319 320 320 319 318 318 318 319 319 320 320 319 318 319 317 317 316 315 312 309 305 304 304 305 306 306 307 308 309 309 308 308 308 309 310 312 316 323 327 329 330 331 332 333 331 332 331 328 327 326 326 326 325 324
329 329 329 331 332 334 334 335 337 337 336 336 337 337 339 339 338 337 336 335 335 334 331 328 325 325 326 326 323 320 320 319 318 317 316 315 313 313 312 311 310 310 312 309 308 306 304 303 303 304 303 303 303 303 304 304 305 305 306 306 307 307 306 307 308 309 310 313 318 325 327 330 332 333 332 331 331 329 328 326 325 323 323 323 322
324 327 328 330 331 334 334 334 337 337 337 338 337 336 338 338 337 337 337 336 337 335 332 329 326 326 329 326 321 319 319 318 318 316 314 313 311 309 308 308 307 308 310 306 303 302 302 301 302 302 302 302 302 302 303 303 303 304 304 305 305 305 305 306 307 307 307 309 313 322 326 327 328 330 330 330 329 328 327 327 325 323 322 321 320
323 328 328 330 331 332 333 333 335 337 337 338 338 337 338 338 338 337 336 336 337 336 334 331 326 327 332 325 321 319 318 318 317 316 314 312 310 309 308 307 307 308 308 303 302 301 301 300 301 301 301 302 302 302 302 302 302 302 302 303 303 304 304 305 305 305 305 307 310 316 324 327 327 327 327 328 327 326 326 325 325 324 320 320 320
322 325 326 329 329 332 333 333 334 335 337 338 338 337 338 337 338 334 336 334 335 335 335 333 328 328 332 326 322 321 319 318 318 316 314 313 311 310 309 308 309 308 304 302 301 300 300 299 300 300 301 301 300 300 300 300 300 300 300 300 301 302 303 304 304 303 303 304 306 311 319 323 325 325 328 327 328 326 324 325 322 321 320 319 319
322 323 325 327 329 331 333 334 334 334 335 337 337 336 337 338 336 336 335 331 335 335 335 334 330 330 332 329 325 322 320 320 319 317 315 314 313 311 310 310 308 304 302 301 300 299 298 298 299 299 299 299 298 298 298 298 297 297 297 297 298 299 300 301 301 301 301 302 303 307 314 320 323 323 323 325 326 325 326 324 322 319 319 318 317
323 323 324 325 328 331 332 333 333 333 334 335 334 335 335 336 336 336 337 332 335 335 334 333 333 332 332 331 327 324 321 322 320 318 316 315 313 312 311 308 305 303 302 300 299 298 297 297 298 299 298 298 297 298 297 297 296 295 295 295 295 296 297 298 298 299 299 299 300 302 308 314 319 320 320 321 322 323 323 323 322 322 320 318 317
323 322 324 324 326 328 331 332 333 331 333 333 332 334 334 335 335 336 337 334 335 335 333 333 333 333 332 332 329 325 323 324 321 318 317 315 313 313 310 308 305 303 301 299 299 298 298 298 299 298 298 297 297 297 296 295 294 294 294 293 293 293 294 295 296 296 297 297 297 299 301 308 314 318 318 318 319 319 320 321 321 320 320 319 318
322 323 323 324 325 327 328 331 332 331 331 332 330 330 333 334 334 335 336 336 335 335 334 333 332 333 332 332 330 327 325 325 321 318 317 315 314 312 310 307 305 302 300 300 299 299 298 298 299 298 298 297 296 296 295 294 293 292 292 292 291 291 291 291 292 292 293 294 294 295 297 300 306 312 315 315 317 317 318 318 317 317 318 317 316
323 324 323 322 324 325 325 328 329 329 330 331 331 328 331 332 332 333 335 336 335 335 334 333 333 333 332 331 331 328 326 326 322 319 316 315 314 312 309 307 305 302 300 299 300 299 298 298 297 297 296 296 295 294 295 293 292 291 291 290 290 290 290 290 290 290 290 290 291 292 293 295 297 303 308 312 312 313 314 314 314 315 315 314 314
321 322 322 322 324 325 325 326 327 327 327 329 329 328 328 330 331 332 332 334 335 334 334 334 332 332 332 332 331 329 327 327 323 320 318 316 314 312 308 306 305 303 301 300 299 298 297 297 296 297 297 295 294 293 293 291 290 290 289 289 289 289 289 289 289 289 289 289 289 289 290 291 293 294 297 304 309 311 312 312 312 312 313 312 313
319 321 322 322 322 323 324 326 324 326 325 325 324 326 326 329 330 330 330 332 334 333 333 334 333 332 333 332 331 329 329 328 324 320 317 316 314 311 308 305 304 302 300 299 298 298 297 296 296 295 294 294 293 293 291 290 289 289 289 289 288 288 288 288 288 288 288 288 288 287 288 288 289 291 292 294 300 306 309 310 311 310 311 311 312
321 321 322 322 322 322 322 324 322 324 324 324 323 323 323 327 330 326 329 328 329 330 330 331 332 333 332 332 331 330 329 328 324 320 317 316 314 311 308 305 303 301 300 299 298 297 297 296 296 295 293 292 292 291 291 289 289 288 287 287 287 288 287 287 288 288 288 288 289 288 288 288 288 290 292 290 292 299 305 307 308 309 309 310 311
322 320 321 321 321 321 321 322 321 322 323 323 321 320 321 322 327 328 328 326 327 328 328 329 330 331 332 332 331 329 329 327 324 321 318 316 314 310 307 304 302 301 299 299 298 298 297 296 294 294 294 292 291 290 289 289 289 288 287 287 287 287 287 287 287 288 289 288 288 288 288 288 290 291 286 287 288 290 298 303 305 306 306 307 309
321 320 321 322 321 320 320 321 321 320 321 321 320 319 319 319 321 326 323 326 325 326 327 327 328 330 331 331 331 329 328 326 323 321 319 317 313 310 306 304 303 301 299 298 298 297 297 296 294 294 293 292 290 289 289 289 289 288 287 287 286 286 286 287 288 290 288 287 287 287 287 287 287 287 286 286 286 286 287 291 296 299 302 305 307
321 320 320 321 320 318 318 317 318 317 317 318 317 316 315 314 315 319 322 322 321 321 323 324 325 326 328 330 330 328 327 326 323 321 319 315 313 309 306 304 303 301 299 298 297 297 296 295 293 292 292 291 291 290 290 289 288 288 287 287 287 286 287 287 287 287 287 287 289 289 289 287 287 287 286 286 285 285 285 284 284 285 293 302 304
317 318 318 319 318 316 316 315 315 316 314 315 314 314 313 315 314 312 316 318 318 317 318 321 320 322 322 325 329 328 327 324 323 321 318 315 312 308 306 304 303 301 298 297 296 296 295 294 292 291 291 291 291 291 290 289 287 287 287 286 286 286 286 287 287 287 287 287 287 287 287 287 286 286 286 286 285 285 285 284 286 284 285 292 298
315 316 316 317 316 316 315 314 314 314 314 313 313 313 314 312 310 315 315 316 316 313 315 315 317 318 320 322 322 327 327 324 322 321 318 313 312 309 306 304 303 301 299 297 297 297 296 294 293 292 291 290 289 290 289 288 286 284 284 284 285 286 288 287 286 287 286 286 286 286 286 286 285 285 285 285 285 285 284 284 284 283 283 283 286
313 314 315 316 315 313 314 315 312 313 314 314 313 314 315 316 316 315 312 315 314 314 315 314 314 314 316 319 319 321 326 325 321 321 317 315 311 308 306 304 303 302 301 299 297 297 295 294 293 291 292 290 289 289 289 287 285 283 282 282 283 284 287 286 286 286 286 286 286 286 286 285 285 284 285 285 285 285 284 284 283 283 283 283 284
313 313 313 312 311 311 312 312 312 313 313 313 313 313 310 309 311 308 312 306 307 310 311 309 310 312 313 315 318 319 323 324 322 319 317 315 312 309 306 305 304 302 299 297 297 296 295 294 293 291 290 290 289 290 288 287 283 283 283 282 279 280 285 283 285 285 286 285 285 286 286 284 284 284 285 284 284 284 284 284 283 283 282 283 283
309 309 310 311 312 310 310 310 311 312 311 310 310 307 308 306 306 307 306 304 302 303 306 305 307 310 313 316 317 318 319 322 322 319 318 315 312 309 308 305 304 302 301 297 296 295 295 294 293 292 290 287 287 287 288 287 286 284 281 281 280 280 277 279 280 284 285 285 285 285 285 285 285 285 284 284 284 284 284 283 283 282 282 283 283
309 310 310 311 313 311 311 311 311 311 310 308 309 308 308 306 302 302 302 302 302 303 305 306 309 310 312 313 316 316 317 318 321 319 317 315 313 310 308 306 305 303 300 298 297 296 295 294 293 291 290 288 287 287 287 288 286 287 285 281 279 280 278 279 281 281 283 284 285 285 286 285 285 285 284 284 284 284 283 283 282 282 281 282 282
308 309 309 311 311 310 310 310 309 309 309 308 309 309 308 307 304 304 304 303 301 301 305 307 305 307 310 311 312 314 315 315 317 318 316 314 312 310 308 306 305 302 301 299 298 296 295 294 293 292 290 290 288 287 286 289 287 287 289 285 284 281 281 280 280 276 282 283 283 284 285 284 284 285 284 284 283 283 284 283 282 282 281 281 280
307 307 307 308 309 309 309 309 309 308 308 308 308 308 307 307 307 307 307 307 307 305 304 304 306 305 307 307 309 310 313 314 314 316 315 313 312 310 308 307 305 304 301 300 298 296 295 294 294 293 292 291 289 287 286 288 288 287 291 291 289 287 284 281 278 278 277 281 282 282 283 284 284 284 284 284 283 283 283 282 281 281 281 280 280
306 306 307 307 307 308 308 308 308 307 307 308 308 308 307 306 306 306 306 306 306 306 306 306 306 305 305 305 305 307 310 312 313 313 314 313 312 310 309 307 305 304 302 300 298 297 296 295 294 293 293 291 290 288 287 289 286 286 291 288 286 284 284 284 283 281 279 278 278 280 282 283 284 284 284 283 283 283 282 281 281 280 280 280 279
305 306 306 307 307 307 307 307 307 307 306 307 307 307 307 307 307 307 306 306 306 304 305 304 305 304 304 303 303 304 306 308 311 311 312 312 309 310 309 307 305 304 301 301 299 298 296 294 294 293 292 292 291 290 290 290 289 288 290 285 283 282 284 282 283 282 279 278 278 279 280 282 283 283 283 283 283 282 282 281 281 280 281 280 280
305 305 305 306 306 306 306 306 306 306 306 306 307 306 306 306 306 306 305 305 306 305 305 303 303 303 303 302 302 301 303 304 306 308 309 310 309 309 308 306 305 304 300 301 299 297 296 295 294 294 294 292 292 292 291 292 291 290 291 286 284 283 283 283 283 281 281 280 279 279 280 280 280 281 281 281 281 281 281 281 282 281 281 280 279
303 304 305 305 305 306 306 305 305 305 305 306 306 305 306 306 306 306 305 305 307 306 304 303 302 302 302 301 300 300 301 302 303 305 307 308 308 308 307 306 306 303 301 301 300 298 297 296 295 295 294 293 292 292 292 292 292 291 290 287 286 287 286 283 283 283 281 279 279 279 280 280 280 279 280 281 281 280 281 281 280 280 279 279 278
Wind_Speed
3 7 5 9 10 11 12 11 11 13 13 14 14 13 14 13 14 14 14 14 15 15 15 15 15 15 15 15 16 16 16 16 16 16 16 16 15 15 14 15 19 18 18 18 19 22 23 20 21 21 21 21 22 22 22 22 20 20 19 18 18 21 23 21 22 21 20 22 23 24 23 21 22 21 22 23 23 24 20 20 17 14 12 16 24
7 5 6 6 10 10 11 12 11 11 13 13 13 13 13 13 13 13 13 13 14 14 15 15 15 15 15 15 16 16 17 17 16 16 16 15 15 15 14 17 18 18 18 18 21 23 21 20 21 21 20 21 22 22 20 19 18 17 16 17 18 20 21 21 20 19 18 17 19 22 23 24 22 21 22 22 23 23 19 19 18 12 11 21 23
7 6 6 7 11 11 12 12 10 11 11 13 13 12 12 12 13 12 12 13 14 14 14 15 15 15 15 16 16 16 17 17 17 16 16 15 15 14 14 17 17 17 18 21 23 23 21 20 20 20 19 20 20 18 18 17 17 16 16 17 19 21 21 21 20 18 18 17 16 17 19 22 24 24 24 23 24 23 20 20 21 18 15 25 23
9 6 5 9 11 11 12 12 10 9 10 11 12 12 11 11 12 13 12 12 14 15 14 15 15 15 15 16 16 16 17 16 17 16 16 15 14 13 12 18 18 18 19 21 23 22 21 21 22 21 19 18 17 17 17 16 16 16 16 16 19 22 21 21 19 18 16 16 15 13 7 10 15 23 24 24 24 24 21 22 23 24 25 24 26
9 6 5 6 7 10 11 11 11 9 10 11 11 12 12 11 13 13 12 12 13 14 14 15 15 15 15 15 16 15 16 16 16 16 15 15 14 13 15 17 17 18 19 21 23 22 21 21 21 20 18 17 17 17 17 17 17 17 16 16 18 19 21 20 19 18 16 15 12 9 8 8 10 21 24 25 24 22 21 23 23 23 23 25 26
8 6 5 6 5 8 11 12 12 11 11 11 12 12 11 11 11 12 12 12 13 14 14 14 14 14 14 15 15 15 15 15 16 15 15 14 14 15 15 16 17 17 19 21 22 22 20 20 21 18 17 16 16 17 17 18 18 17 15 14 20 19 19 18 18 15 13 12 10 8 9 10 9 12 25 24 24 21 23 25 25 24 24 25 24
10 6 6 6 5 7 11 12 13 12 12 12 12 12 11 11 12 12 12 13 13 14 15 14 14 14 14 15 15 15 14 15 15 15 15 15 17 16 18 18 17 17 19 21 22 21 20 20 20 19 16 16 17 17 17 18 17 16 15 16 17 19 19 17 15 14 11 7 6 6 6 8 10 10 23 22 24 23 24 24 24 24 24 24 24
8 7 6 5 5 8 12 12 13 13 13 12 12 13 12 12 12 12 12 13 13 14 14 14 14 14 14 15 15 14 14 15 15 15 14 16 18 17 16 17 17 19 19 21 23 20 20 20 19 19 18 16 16 17 17 17 17 19 21 21 20 20 18 17 15 13 13 7 5 6 6 8 10 9 22 22 22 23 23 23 24 24 24 23 18
9 9 8 6 6 11 11 12 13 14 13 13 12 12 12 12 11 12 12 13 14 14 15 14 14 14 14 15 14 14 14 14 14 13 13 15 17 18 17 17 17 18 19 21 22 20 20 19 18 18 17 16 16 17 17 17 18 19 21 21 21 21 20 18 16 13 8 6 6 6 6 5 8 10 20 22 23 23 22 17 19 24 25 20 20
9 9 9 7 7 11 11 12 13 13 13 13 12 12 12 12 11 12 12 12 13 15 15 14 14 14 14 14 14 14 15 15 14 14 14 15 16 16 17 17 17 18 19 22 21 20 19 18 17 17 17 17 17 17 17 18 18 20 21 21 22 21 20 18 15 12 9 9 9 9 11 12 7 9 18 23 24 24 20 16 14 16 18 24 26
10 9 8 8 9 12 12 11 12 12 13 13 13 12 12 12 12 12 13 12 13 14 14 14 13 14 14 15 14 14 15 15 14 14 14 14 15 15 16 16 17 19 20 20 20 20 19 18 17 16 17 17 17 17 18 17 17 18 22 22 21 20 19 16 11 8 9 9 9 8 10 15 9 10 20 24 25 25 24 25 24 24 26 27 27
10 9 8 7 10 12 12 12 11 13 12 13 14 13 13 12 12 12 13 13 14 14 14 14 13 13 14 14 14 14 14 15 15 14 14 14 13 14 15 16 16 17 18 19 19 19 18 17 16 16 16 17 17 17 18 18 17 15 18 22 21 19 18 15 10 8 8 9 8 8 8 9 10 15 24 24 25 26 26 26 25 28 26 27 27
10 9 8 7 7 10 12 13 12 12 12 13 14 14 13 12 12 12 12 13 14 14 14 14 13 13 14 14 15 15 15 15 15 15 15 15 15 15 15 15 16 17 17 17 18 18 18 17 15 16 16 16 17 17 18 17 17 17 17 18 18 18 16 14 8 9 7 7 7 8 9 9 10 22 24 24 26 26 26 27 26 26 28 27 26
9 9 8 7 6 10 12 12 12 12 12 13 14 13 13 13 13 13 14 13 13 14 14 14 14 13 14 14 15 15 15 15 15 15 15 16 16 16 16 16 17 16 16 16 17 17 18 17 15 16 16 16 17 17 17 17 18 19 18 18 17 15 13 11 10 8 7 7 8 9 9 8 10 22 24 24 25 26 25 27 27 28 28 28 27
11 10 8 7 7 7 11 11 11 11 12 12 12 11 12 13 11 13 14 14 14 14 14 15 14 13 14 14 15 15 15 15 15 15 15 15 15 16 16 16 16 16 16 17 17 17 17 17 16 15 16 16 16 17 18 18 19 18 19 18 16 16 13 7 7 6 7 7 6 9 8 8 20 22 24 24 23 23 27 27 27 28 27 27 28
13 10 9 7 6 7 7 9 10 10 11 11 11 11 12 11 11 13 14 14 14 15 14 14 15 14 14 14 15 15 15 15 15 15 15 15 15 16 16 16 16 16 16 16 16 17 17 17 16 16 16 16 17 18 19 20 20 19 18 17 17 16 14 8 6 6 6 6 6 6 9 11 23 23 25 25 25 28 26 27 28 27 27 28 29
11 11 10 8 7 6 6 6 8 10 11 11 10 10 11 12 12 13 13 12 13 14 14 15 15 14 14 14 14 13 13 15 15 15 14 14 15 15 16 16 16 15 16 16 16 16 17 17 16 16 15 16 18 19 19 19 20 19 18 17 15 14 13 10 7 6 6 6 6 7 8 9 21 24 23 27 27 26 26 27 28 28 28 29 29
10 10 10 9 7 7 7 6 7 6 6 8 10 11 10 11 12 13 13 12 12 13 13 13 14 14 12 11 11 11 12 13 14 14 14 13 15 15 16 16 16 16 16 17 17 17 17 16 16 16 16 17 18 19 20 19 20 19 18 17 16 15 14 11 6 5 5 5 6 8 8 16 23 23 26 27 26 26 26 28 29 29 29 29 27
9 10 9 9 8 7 7 6 6 6 6 5 5 9 11 11 11 11 12 13 11 12 13 13 14 14 13 12 11 11 11 11 12 12 13 12 12 13 14 15 16 17 17 18 18 18 17 16 17 16 17 18 18 19 19 19 19 18 18 16 15 15 14 9 6 6 5 5 3 6 9 20 22 24 24 25 26 27 27 28 29 30 29 26 25
6 8 9 8 8 8 7 6 6 6 6 5 6 7 10 12 12 11 11 13 12 12 14 13 13 14 14 13 12 10 10 9 12 10 12 12 11 10 13 15 16 17 18 18 18 18 18 18 17 17 18 18 18 18 18 19 19 19 17 16 15 14 9 7 7 7 6 6 5 8 15 19 22 23 24 25 26 27 28 28 29 27 26 26 26
5 6 7 8 8 8 8 7 7 7 7 7 6 7 8 11 11 13 13 13 13 13 14 14 13 13 13 13 11 8 6 6 7 7 10 8 10 12 12 15 16 17 17 18 18 18 18 18 17 17 17 16 13 15 18 18 19 18 17 15 15 10 7 8 8 7 7 6 7 10 17 19 23 25 25 25 26 26 26 28 29 28 27 27 28
6 5 5 7 8 8 9 8 7 8 8 7 6 5 7 9 8 8 8 10 11 12 11 9 10 8 12 10 8 7 6 5 6 7 6 8 9 12 12 13 16 17 17 18 18 17 17 17 17 17 16 14 12 8 10 15 17 16 14 15 10 7 8 8 8 7 8 6 8 12 18 21 23 24 25 26 27 27 28 27 29 28 27 27 27
6 5 5 7 7 8 8 9 8 8 9 7 6 7 7 6 9 8 8 10 10 10 8 9 7 8 6 8 7 6 7 5 5 6 7 10 10 11 12 13 14 14 15 16 16 16 16 16 16 15 14 13 9 7 7 7 9 14 13 10 7 7 8 9 8 7 7 7 5 13 17 22 23 24 25 26 25 26 27 29 28 27 27 27 26
8 7 7 5 7 7 8 8 9 9 8 7 6 7 7 7 6 7 7 7 8 8 8 7 7 7 7 7 7 7 7 7 9 12 10 7 8 11 12 13 13 12 13 9 12 14 15 15 14 12 9 6 6 7 7 7 7 7 8 7 7 8 9 8 7 7 7 8 7 15 17 22 24 24 24 25 26 26 28 27 27 27 27 27 26
7 6 6 7 7 8 6 6 9 9 9 7 8 7 7 7 7 6 7 7 7 8 7 8 7 7 7 7 8 7 7 7 6 5 6 6 6 6 6 6 6 6 8 6 6 7 7 7 7 7 6 7 7 7 7 8 7 8 7 7 7 8 8 8 8 8 8 8 7 15 17 21 24 24 24 25 25 26 27 25 23 25 25 26 26
6 8 9 8 8 8 7 6 8 9 9 8 8 8 8 7 8 7 7 6 7 8 7 7 7 7 6 7 8 8 7 7 6 6 6 6 6 6 6 6 6 5 4 6 6 6 6 6 7 7 6 6 7 7 7 7 8 8 7 7 7 7 7 7 7 7 7 7 11 12 18 19 21 24 23 24 24 25 27 27 25 25 25 24 25
9 10 8 8 8 8 8 6 8 9 10 8 7 7 7 7 7 7 8 7 7 8 8 7 7 7 7 9 8 7 7 7 6 6 6 5 6 6 6 6 6 5 5 6 7 6 6 6 7 7 5 6 7 8 8 8 7 8 8 8 7 7 7 7 7 7 6 7 10 18 12 20 23 23 21 24 23 23 22 25 25 25 24 22 22
7 9 9 9 10 11 9 8 7 9 9 9 9 8 7 8 8 9 8 8 8 7 8 8 8 7 7 9 9 8 9 8 7 7 6 5 6 6 6 6 5 6 6 7 7 6 6 6 6 6 7 6 7 7 8 8 7 7 9 8 7 7 7 7 7 7 7 7 9 17 16 16 16 20 24 23 23 23 24 23 24 24 23 21 22
9 9 9 10 11 11 10 11 8 9 9 9 9 8 8 8 8 9 9 9 8 8 8 8 8 7 7 9 9 8 8 9 8 7 7 6 6 6 6 6 6 6 6 6 7 7 6 6 6 6 6 7 6 7 8 8 7 7 8 8 7 7 7 7 7 8 7 7 8 16 18 19 18 19 19 20 21 23 24 23 22 21 20 21 21
10 10 10 10 9 10 12 12 11 9 9 9 8 9 9 8 9 9 9 10 9 8 9 8 8 8 7 9 9 9 9 9 9 8 8 7 6 6 5 6 6 6 7 7 6 7 7 6 6 7 7 7 7 6 8 8 8 7 7 8 8 7 6 6 7 7 7 8 8 11 18 16 16 19 19 20 21 21 22 21 22 23 21 21 20
9 10 10 10 10 10 11 11 11 9 8 9 8 9 9 9 10 9 9 9 9 8 9 9 8 8 8 9 9 9 9 8 9 9 7 7 7 6 6 6 6 6 7 7 6 6 6 7 7 7 6 7 7 5 7 8 8 7 6 8 7 6 7 6 7 7 8 7 7 8 12 18 18 15 18 19 18 19 20 20 22 20 19 19 19
11 12 11 9 10 12 12 11 11 10 10 9 7 8 9 9 10 9 9 9 9 8 8 8 9 9 9 10 9 9 9 9 10 9 8 8 7 7 7 7 6 6 7 7 7 6 7 7 8 7 7 7 7 6 6 8 8 7 7 7 6 7 6 6 7 8 7 7 7 8 8 11 18 18 16 18 19 19 19 20 20 19 18 17 17
9 11 10 10 12 11 11 11 10 10 10 11 9 6 8 8 9 9 8 9 9 8 8 8 8 9 9 10 10 10 9 9 10 11 9 8 8 8 6 7 7 7 7 8 9 8 8 8 8 7 7 7 8 7 6 7 8 7 7 6 6 7 5 6 7 7 7 7 8 7 8 9 10 14 18 17 18 18 17 16 16 17 17 16 16
9 7 9 12 10 8 8 8 9 10 10 9 8 7 8 8 8 8 8 10 8 8 8 8 8 8 9 11 10 10 9 9 10 9 9 9 8 8 8 7 7 7 8 8 8 7 8 9 8 8 7 7 8 7 7 8 7 6 7 5 6 6 6 7 7 7 6 7 6 8 8 8 8 8 10 17 17 16 17 17 16 16 16 16 16
6 7 12 11 10 10 9 8 9 9 9 8 9 8 7 8 8 8 8 9 9 8 8 8 8 8 9 9 11 10 11 10 10 10 9 9 9 8 8 8 8 8 8 7 8 7 8 9 9 9 7 7 7 5 7 8 7 8 6 6 6 6 6 7 6 7 7 6 7 7 8 7 7 7 7 7 12 16 16 17 16 16 15 15 14
11 10 8 9 11 10 10 9 9 10 10 9 8 8 7 8 7 7 7 7 7 8 7 6 6 6 7 9 11 11 11 11 11 11 10 9 9 9 8 9 10 8 8 7 8 9 8 8 7 9 11 8 8 7 5 8 7 8 6 6 6 6 7 6 7 7 6 6 6 7 7 7 7 7 6 6 6 11 19 16 17 15 14 14 14
10 9 10 9 10 10 11 11 12 12 11 10 8 6 7 7 8 7 7 7 7 8 7 6 7 7 6 8 10 11 11 11 12 12 10 9 8 9 9 11 9 9 9 8 8 7 9 8 7 6 8 10 9 9 7 7 8 7 7 7 6 7 6 6 6 6 6 7 7 6 6 5 4 6 6 7 6 7 13 18 16 16 13 13 13
10 11 11 13 13 11 11 11 10 9 10 10 9 8 7 7 7 7 6 7 7 7 7 7 8 8 7 7 10 12 12 12 12 12 10 10 10 10 9 11 10 9 9 9 8 8 7 8 9 6 7 9 9 10 9 8 7 7 7 7 6 7 6 6 5 5 6 6 6 6 5 5 5 5 6 6 6 7 7 11 14 13 13 13 14
9 11 11 10 9 9 9 9 10 8 8 8 7 5 4 4 5 7 7 7 6 6 7 8 7 7 8 8 8 9 10 12 13 13 10 10 10 10 10 11 10 10 9 9 10 9 8 7 10 9 5 4 8 9 9 9 9 7 8 7 7 6 6 6 6 6 6 5 5 4 4 5 5 6 6 6 6 6 7 6 6 6 6 13 13
7 7 9 9 10 9 8 8 8 8 6 6 6 6 6 6 5 4 6 7 6 6 6 7 6 6 6 7 8 9 9 9 9 10 11 11 10 10 10 10 10 10 10 10 10 11 12 11 10 12 10 7 6 8 10 11 10 10 8 7 6 5 5 5 5 5 5 4 5 5 5 5 6 6 6 6 6 6 6 5 5 5 4 7 13
7 8 9 9 11 13 11 12 9 8 9 8 7 8 8 6 4 7 7 6 6 5 6 6 6 6 5 6 5 8 10 11 12 11 11 11 11 11 11 10 10 10 11 13 13 12 11 12 11 9 13 13 8 6 7 10 14 8 7 7 6 4 4 5 5 4 4 3 3 5 5 6 5 6 5 5 6 6 5 5 5 4 4 4 6
9 9 11 11 7 7 11 10 8 8 9 10 9 9 9 10 10 8 5 6 7 7 7 6 6 5 5 5 5 4 11 12 12 12 11 12 10 10 12 13 12 11 10 11 12 12 12 11 11 9 7 12 10 10 10 11 4 9 11 6 5 4 3 4 4 3 4 3 3 5 5 6 6 5 5 6 5 5 5 5 4 4 3 4 4
9 10 8 7 7 7 8 7 8 9 9 9 9 9 5 3 4 3 6 4 1 3 4 4 4 5 4 4 5 5 7 11 12 12 12 12 13 12 11 11 12 11 10 9 11 12 12 15 15 13 10 5 7 8 11 3 8 6 6 9 5 4 1 2 2 3 3 3 3 5 5 5 5 4 5 5 5 5 4 4 4 4 3 4 5
7 6 7 10 8 8 7 8 8 8 7 7 6 4 4 4 4 5 4 4 4 2 3 3 4 4 6 5 5 6 6 8 12 11 10 12 14 13 12 11 11 11 12 13 12 13 12 12 12 12 13 12 8 9 9 4 10 16 7 3 5 5 4 5 3 1 2 3 4 4 4 5 5 4 4 5 5 5 4 3 4 3 3 4 4
8 10 9 10 9 11 11 11 9 9 7 7 7 6 6 5 5 5 5 5 4 3 4 4 6 6 5 7 8 6 6 5 10 12 11 12 11 12 12 12 12 12 12 13 14 15 15 13 13 12 14 15 13 9 10 5 10 2 10 8 3 0 6 4 6 1 1 2 1 3 3 5 5 5 5 5 4 4 5 4 3 3 3 4 4
9 9 9 9 8 8 8 8 7 7 8 8 8 8 8 8 7 7 7 5 6 6 11 11 8 8 9 4 4 7 6 6 6 10 11 11 11 11 12 13 13 12 13 12 11 11 13 14 15 15 13 10 14 12 10 6 10 6 4 1 7 8 9 7 7 4 0 0 3 3 4 4 4 5 5 5 5 5 3 4 3 3 3 4 4
9 6 6 7 7 8 8 9 9 8 8 8 9 9 8 8 10 10 9 10 11 8 4 4 7 5 3 6 6 5 7 8 7 8 10 10 12 12 12 13 13 11 6 9 12 15 14 15 14 13 13 11 10 14 14 10 7 6 4 1 1 2 12 14 6 6 4 2 2 3 3 4 5 5 5 5 6 5 4 3 3 3 3 3 3
7 6 7 7 9 9 8 9 8 8 8 9 10 10 10 9 9 9 9 9 9 8 7 5 5 5 5 6 5 6 6 6 7 7 8 10 11 12 13 12 12 12 12 12 14 13 11 10 13 13 11 11 14 13 13 11 15 10 5 3 2 5 10 3 10 11 8 10 5 2 1 4 5 5 6 6 6 6 6 4 4 3 3 3 3
7 8 8 8 7 7 8 7 9 8 8 10 10 9 9 10 10 9 9 7 6 5 5 6 6 6 7 5 6 6 6 6 6 7 8 10 11 12 12 12 13 13 12 11 11 13 15 15 14 12 12 11 12 10 11 12 10 8 8 2 5 6 3 2 6 5 5 6 3 8 6 1 1 2 5 5 5 5 6 6 5 4 4 3 3
6 6 6 6 7 6 8 8 8 8 8 9 10 10 9 9 9 9 9 7 6 4 6 7 7 7 8 8 7 6 7 6 6 7 8 9 10 11 12 13 13 13 12 13 13 13 13 13 15 15 13 13 10 9 12 11 11 7 7 7 5 5 3 3 3 4 4 3 9 12 9 11 9 5 3 5 5 5 5 6 5 5 5 5 3
5 6 6 7 7 8 8 9 9 8 8 10 10 11 10 9 10 10 10 10 9 7 7 7 7 8 9 8 8 7 6 7 7 7 8 9 10 11 11 12 12 11 11 9 11 13 13 14 13 13 13 14 11 10 8 7 8 8 8 8 9 13 12 8 10 6 6 4 4 5 5 7 6 6 6 4 5 5 6 5 6 5 5 4 4
Wind_Direction
163 127 133 123 122 115 113 111 108 106 107 110 111 108 103 98 94 90 88 88 88 87 88 88 86 85 84 82 80 79 77 76 78 79 80 80 79 77 80 83 75 78 81 81 79 77 75 73 71 73 72 72 74 75 73 73 73 71 71 71 72 71 72 71 69 61 58 65 66 66 66 66 66 66 66 63 62 59 57 56 54 56 60 55 56
148 137 131 134 125 117 120 116 107 103 107 109 109 110 109 105 101 95 94 92 89 87 87 88 87 85 84 83 82 80 79 79 80 80 81 81 80 81 81 84 78 80 81 79 77 75 74 72 73 72 71 74 77 76 70 65 60 59 60 66 73 78 74 71 69 64 58 59 66 68 67 67 67 67 68 66 63 59 55 60 63 63 62 62 61
129 129 138 138 131 125 121 120 114 112 107 110 110 109 111 111 107 102 96 92 90 89 87 86 85 84 83 84 83 81 81 81 82 82 82 81 80 82 85 85 88 86 82 80 76 74 75 75 73 71 71 76 77 65 60 56 52 50 51 64 75 79 77 74 72 65 58 55 60 65 68 69 70 70 70 68 66 62 57 59 63 65 64 63 62
127 129 133 136 134 128 127 125 119 112 109 109 110 111 111 107 107 101 99 95 92 90 87 84 84 84 84 85 84 82 82 83 84 86 85 87 88 86 83 81 86 86 84 83 81 79 78 78 78 76 75 75 68 61 55 52 48 45 51 72 81 82 80 78 75 69 61 56 58 61 57 67 67 69 70 71 69 67 64 62 62 62 61 60 60
125 131 128 127 133 132 129 127 123 118 118 117 117 112 101 92 93 98 99 95 94 91 88 85 85 85 86 85 84 83 82 84 87 89 92 93 94 97 89 84 86 87 87 83 82 82 81 80 79 77 77 74 64 57 52 46 42 40 41 63 87 88 82 79 76 70 64 59 52 53 56 59 72 72 71 71 71 71 70 68 66 65 63 63 60
130 133 127 122 123 132 133 131 128 127 125 122 118 114 105 100 101 102 102 100 97 94 89 88 87 87 88 86 86 85 85 86 89 92 94 94 94 83 89 94 90 87 86 85 84 83 82 81 81 79 78 69 61 55 49 42 38 36 39 45 78 82 86 81 75 69 62 58 52 57 57 60 60 70 73 73 72 71 71 71 69 68 67 65 64
133 133 124 123 125 133 134 133 130 128 127 124 123 118 115 112 113 112 111 106 101 98 95 93 92 91 90 88 88 88 87 88 90 92 93 91 75 68 70 82 87 87 85 86 83 82 82 82 82 83 77 68 60 53 46 42 39 39 49 59 67 74 76 79 78 74 66 60 54 52 58 66 69 69 71 72 73 72 71 70 69 69 68 66 64
135 131 129 124 128 139 135 135 131 131 130 127 124 120 121 119 118 119 115 112 109 103 100 97 96 96 92 92 91 91 90 88 88 89 91 85 80 77 75 79 84 83 86 84 83 82 82 82 82 83 79 66 59 53 47 44 45 60 73 70 67 62 63 71 71 69 67 59 52 51 57 68 75 76 76 75 73 70 70 71 70 70 70 71 69
136 134 131 131 135 138 135 132 132 132 130 128 125 123 122 120 119 118 117 117 113 106 101 98 98 97 94 93 92 91 89 86 83 82 83 86 88 85 83 82 80 81 81 82 83 82 82 81 81 80 71 62 55 49 46 45 47 63 71 69 67 64 59 56 55 54 51 42 41 42 46 41 73 82 79 80 80 77 74 69 70 71 68 65 67
130 132 134 137 139 137 135 136 135 132 131 130 127 126 126 124 121 115 119 116 110 106 102 99 98 96 96 93 90 87 85 83 80 78 79 83 76 84 85 83 83 82 80 80 83 84 83 82 80 74 66 58 51 46 44 45 49 64 71 71 70 68 64 59 56 53 52 48 44 54 61 64 57 71 83 84 84 79 72 69 68 67 69 68 65
126 131 134 139 142 142 141 135 132 134 132 131 131 131 129 128 124 125 126 125 113 107 103 101 98 97 96 94 93 90 87 86 85 84 81 84 81 82 81 81 78 75 76 79 80 81 82 81 79 70 63 56 51 49 46 45 48 63 74 75 73 70 68 63 55 53 51 52 52 44 61 69 69 76 81 86 83 77 74 71 70 73 73 70 69
125 130 136 139 145 147 139 135 137 135 136 136 135 134 131 131 130 130 130 127 117 109 107 105 103 100 99 99 98 97 94 92 91 90 89 89 93 93 87 84 83 82 78 80 84 85 84 83 80 69 62 56 53 50 45 44 47 57 78 79 76 73 70 65 60 56 54 51 50 58 63 69 72 82 83 83 84 81 78 75 71 71 68 67 66
127 130 135 142 142 144 140 140 138 140 140 139 137 136 136 136 133 133 124 126 118 116 112 110 107 106 104 104 103 102 102 99 97 95 91 91 90 90 93 91 87 86 89 90 89 87 86 85 79 68 63 59 55 49 45 44 51 61 70 78 80 76 73 69 66 64 60 56 54 53 63 68 76 79 80 81 81 80 78 74 71 67 65 62 62
130 135 138 141 141 143 142 140 141 143 143 142 139 139 139 137 137 135 132 129 126 120 117 114 112 110 110 109 108 107 107 105 102 100 98 96 95 94 91 92 92 92 95 94 93 91 89 89 81 70 65 60 53 47 46 48 55 62 65 69 72 72 71 70 66 64 61 59 60 63 69 71 80 80 77 75 76 76 74 73 69 66 66 64 61
137 142 141 143 143 144 142 140 142 145 144 142 139 139 139 139 137 134 137 136 129 126 122 117 116 115 114 112 111 109 107 106 105 103 101 100 99 98 95 93 92 93 91 91 91 91 91 89 86 71 67 61 54 50 47 48 52 57 66 68 68 72 69 65 60 58 59 57 59 67 74 85 81 80 82 78 77 80 75 73 71 68 65 63 59
140 143 140 145 143 141 140 143 143 146 142 139 141 142 139 136 133 136 137 137 136 128 125 121 118 118 116 115 114 113 110 108 108 106 104 103 103 101 99 97 96 94 95 93 91 92 93 92 86 75 70 64 57 52 54 60 61 60 60 64 69 69 68 66 62 58 56 57 60 66 71 76 82 84 81 82 78 75 76 73 71 69 66 63 60
138 140 142 144 145 142 139 144 144 142 139 140 142 142 139 137 138 138 139 141 139 130 129 124 121 120 118 115 113 112 111 110 109 108 106 106 105 104 103 102 101 100 99 99 99 97 94 94 85 78 72 65 60 59 60 62 62 61 59 57 55 55 58 65 65 59 58 60 67 71 78 77 78 78 79 80 79 76 75 74 72 69 68 65 62
140 143 146 148 147 148 146 142 140 138 138 137 136 137 138 136 139 140 142 142 141 132 127 124 118 112 106 104 104 106 109 110 109 109 108 105 107 107 106 106 106 105 104 104 104 103 101 93 84 80 72 66 63 64 64 63 62 60 57 56 55 52 46 39 45 47 56 58 73 84 80 79 81 85 82 80 79 80 78 77 75 72 69 67 65
144 146 145 149 152 148 147 147 149 143 143 139 138 138 138 134 132 138 139 139 138 127 121 115 113 110 104 97 93 91 92 95 97 99 100 97 100 102 106 107 108 108 107 107 106 104 104 94 86 80 73 68 66 66 66 65 63 61 60 56 54 53 46 42 31 31 35 53 58 85 89 86 82 80 79 80 81 81 81 80 78 73 70 69 69
137 142 149 157 155 153 153 155 156 152 149 146 144 142 142 137 134 135 136 137 133 126 122 118 116 113 110 105 101 94 88 86 89 91 95 95 99 103 106 108 107 109 108 108 107 106 103 94 88 81 74 69 64 62 63 67 65 63 61 59 56 51 45 40 33 25 20 21 49 76 79 82 82 82 82 81 82 83 82 82 79 75 73 72 70
128 137 148 161 160 159 159 158 161 157 154 148 147 144 143 136 133 133 135 135 132 128 124 121 119 119 117 115 108 102 97 92 87 93 89 92 96 99 102 105 106 107 107 107 105 103 99 95 90 82 75 69 60 59 62 63 65 64 63 60 58 53 46 43 37 31 23 23 50 77 84 84 84 84 85 85 85 84 83 82 81 78 76 76 75
153 152 152 158 160 164 163 164 160 161 158 154 151 145 140 139 132 133 135 135 131 129 130 134 132 131 129 122 118 115 106 99 99 96 96 94 92 96 100 106 108 107 106 104 103 100 99 96 90 83 77 71 62 61 62 62 61 62 61 62 59 57 49 45 39 34 29 23 66 81 85 87 89 89 88 86 83 82 82 81 83 81 78 75 74
169 168 177 169 163 162 163 167 164 162 158 158 154 149 146 134 135 135 137 139 140 139 140 141 141 142 141 125 121 118 115 106 102 105 104 99 100 101 103 104 105 104 104 104 102 97 92 88 83 77 71 66 64 63 66 65 63 61 60 59 62 58 56 48 43 38 34 21 50 83 88 90 89 88 87 86 85 83 79 77 77 77 78 77 75
177 179 174 176 168 166 170 162 165 164 157 160 152 153 151 141 142 141 143 145 150 147 149 150 150 154 146 130 125 124 115 110 107 106 102 98 95 93 97 99 100 99 96 88 75 74 74 70 71 69 66 68 69 66 70 69 67 66 62 60 63 60 54 49 45 38 34 22 41 71 87 93 91 90 90 88 85 84 83 82 80 79 77 76 74
177 162 162 181 179 170 177 171 164 165 160 159 157 162 156 148 151 152 153 154 155 154 155 157 161 164 150 135 135 127 122 123 122 113 111 112 107 108 104 105 108 106 96 81 83 77 75 72 65 64 70 75 75 68 74 74 70 70 66 61 62 62 58 52 49 45 33 34 25 77 83 90 90 90 88 86 85 85 83 81 81 78 76 76 75
159 174 182 176 182 178 177 182 165 168 167 164 165 161 158 157 157 160 160 164 160 159 161 164 169 170 148 135 133 129 130 128 129 126 125 125 123 123 124 128 126 118 91 92 88 88 84 86 81 77 73 81 83 81 76 79 80 74 70 64 62 61 61 58 54 50 42 31 24 57 86 83 88 89 88 88 87 85 83 82 80 79 78 77 76
184 190 177 178 178 180 181 182 171 168 170 166 162 161 169 165 159 161 167 171 167 161 167 169 175 172 146 145 142 142 139 138 136 139 139 139 136 140 139 145 134 108 101 101 95 92 93 93 94 91 86 82 83 84 82 78 77 82 75 68 63 61 60 56 53 51 37 38 32 24 86 96 89 85 87 89 88 86 85 85 80 79 79 77 74
179 186 184 177 178 183 181 179 178 166 171 169 164 168 172 168 167 161 174 174 168 171 172 173 175 170 155 155 151 149 148 147 147 149 152 150 148 149 151 144 110 104 109 106 105 101 101 96 99 94 92 82 84 86 87 81 77 78 80 72 67 62 59 60 58 46 44 38 36 27 38 67 81 90 87 83 85 89 88 82 81 80 76 75 74
186 190 185 178 185 179 178 183 185 170 169 169 169 171 174 171 165 170 177 173 181 175 175 171 176 171 163 158 157 153 156 151 154 158 156 158 155 153 152 128 113 118 112 109 113 113 105 106 101 100 94 92 87 84 88 84 79 75 79 77 72 66 64 61 55 52 44 44 38 34 28 49 69 79 79 83 85 84 87 87 88 81 77 77 76
193 186 183 188 181 178 181 186 184 177 173 170 170 175 177 174 173 176 178 171 185 177 171 176 181 173 170 165 165 161 163 157 156 159 159 162 159 152 127 126 124 126 115 116 122 117 119 110 103 100 100 98 94 92 95 91 82 78 79 83 73 73 71 69 63 55 53 45 41 41 30 29 61 82 83 85 84 83 84 87 85 85 85 82 78
179 186 188 185 180 177 185 188 185 180 176 181 172 178 175 179 177 178 176 178 182 174 177 176 178 181 174 170 169 167 163 158 156 160 163 155 154 142 131 128 121 124 121 119 123 122 118 115 116 112 109 106 98 96 99 95 90 81 81 83 80 79 74 70 71 65 59 48 50 45 35 32 31 58 80 80 84 82 81 81 82 85 84 84 83
187 192 187 176 174 182 182 187 186 184 186 189 177 175 177 175 175 175 179 183 179 179 180 177 178 180 174 173 173 171 170 160 158 161 159 151 147 142 139 131 129 131 126 129 127 125 116 108 103 105 110 106 101 97 94 98 92 89 85 82 80 78 72 71 71 68 64 59 55 49 47 38 36 36 63 85 84 82 81 81 81 81 78 78 79
201 187 178 173 180 180 176 185 182 184 190 194 190 175 175 170 168 175 175 181 185 181 181 182 177 175 174 175 175 174 173 162 163 160 155 151 146 143 138 135 136 134 129 132 129 126 119 117 112 116 109 106 103 98 95 91 94 91 86 81 83 76 73 74 73 68 66 62 59 56 55 49 45 35 40 60 78 81 84 82 87 85 84 81 78
187 184 165 180 178 180 177 175 182 184 189 191 189 178 178 175 171 170 171 174 185 187 187 183 175 173 174 176 176 175 175 167 160 159 154 151 150 147 141 138 139 134 134 138 135 134 128 124 124 116 113 113 112 112 110 100 95 91 86 85 78 81 79 74 71 71 71 68 64 64 60 58 52 51 45 41 53 78 80 79 79 83 81 80 78
173 184 183 176 172 176 176 183 184 188 185 188 184 184 176 175 175 175 175 175 177 184 187 185 179 172 173 176 177 175 177 169 163 157 158 155 152 148 147 145 143 141 141 149 138 133 130 133 138 129 119 109 107 108 110 108 104 94 89 88 84 85 73 80 74 73 73 75 71 68 67 65 62 62 52 52 43 48 70 79 75 80 83 83 80
186 184 178 167 177 177 177 179 181 189 193 190 185 177 171 172 174 175 174 180 177 181 179 182 183 174 174 175 177 175 177 171 163 160 157 162 155 152 152 146 147 145 145 147 142 139 138 133 136 136 130 127 121 111 100 102 100 94 88 83 83 78 83 76 80 80 76 76 73 69 68 68 67 67 64 60 55 53 57 73 80 79 81 74 76
185 175 176 176 178 179 178 177 181 186 188 189 182 181 170 164 173 176 177 178 181 188 186 177 180 185 183 183 178 176 177 171 166 163 159 158 152 149 153 149 151 149 149 148 144 142 141 136 139 141 134 133 128 118 106 102 97 92 86 82 74 79 76 82 84 88 79 75 74 73 69 65 70 67 68 66 59 49 56 60 76 64 52 77 75
187 182 179 179 182 179 181 182 180 179 182 184 182 178 178 156 157 175 174 181 188 186 186 181 186 187 189 193 184 179 180 169 166 165 162 160 156 153 154 152 150 151 150 151 146 145 143 145 134 127 135 134 130 128 120 108 98 94 84 78 74 76 80 83 84 77 83 82 75 77 82 85 77 76 75 76 72 65 54 47 43 38 44 68 78
189 184 179 182 174 178 177 180 174 173 176 174 172 164 155 147 116 154 173 182 185 187 176 183 187 182 186 188 183 182 175 166 168 164 159 156 153 153 157 159 154 155 154 151 147 148 145 144 134 125 111 107 129 126 124 116 102 90 84 76 81 79 82 81 79 85 81 89 94 93 86 75 79 75 77 78 78 74 70 63 50 34 33 70 69
187 188 184 176 174 174 175 173 176 166 155 155 150 157 159 171 158 119 163 184 173 172 185 184 175 179 172 175 178 175 174 163 163 163 157 156 153 155 159 160 156 155 157 154 156 158 155 146 142 136 125 103 97 123 127 116 97 87 83 75 71 79 74 78 82 88 91 93 99 94 93 83 78 79 76 81 81 81 81 77 72 63 35 59 64
181 183 186 187 180 178 170 181 178 164 159 162 169 168 176 183 179 187 181 176 171 167 176 181 184 178 170 161 183 175 171 168 168 165 165 164 160 156 159 165 160 161 165 167 163 159 155 150 144 143 141 135 134 142 137 125 117 85 70 76 65 59 76 80 83 88 98 111 108 105 100 91 85 83 86 85 85 86 86 87 86 78 67 54 40
197 182 188 191 182 172 181 179 169 175 178 177 177 182 190 192 184 188 158 167 167 175 183 189 184 177 174 170 165 198 175 171 170 167 165 163 155 158 164 165 165 172 172 168 157 153 151 149 145 135 151 143 148 163 161 132 98 140 137 117 67 51 58 72 80 77 102 103 113 106 103 105 101 100 94 93 91 92 92 92 92 89 81 74 68
180 181 178 165 171 177 188 177 180 182 188 182 176 191 181 161 164 155 154 148 211 191 169 166 164 174 182 185 178 189 195 174 173 170 169 168 162 162 172 169 173 160 161 167 156 155 161 158 159 153 149 146 142 173 177 202 128 109 102 100 148 107 102 54 39 85 96 103 102 100 112 115 120 116 117 106 104 101 98 99 98 98 97 87 80
164 169 171 179 180 179 181 179 186 188 185 184 175 138 131 117 94 122 115 126 168 129 116 143 169 170 192 194 202 194 209 188 175 174 174 172 165 167 168 169 167 172 165 163 165 162 162 165 163 159 152 148 166 183 202 184 153 138 150 169 168 119 124 235 163 182 111 112 117 122 122 127 128 124 115 114 119 116 111 110 102 107 104 95 86
182 184 181 184 189 186 183 180 181 182 175 165 163 145 131 116 90 70 85 80 66 114 136 199 198 193 185 200 208 196 196 218 184 176 176 173 170 167 167 171 170 173 174 171 170 170 170 169 165 161 173 163 164 173 198 186 189 217 131 124 79 224 210 162 129 80 109 106 143 155 149 138 138 139 132 127 123 122 125 112 109 100 97 91 84
192 196 189 188 182 182 177 177 172 171 171 169 163 157 165 160 152 153 165 176 181 175 197 198 188 194 203 182 199 200 200 197 205 180 176 168 169 169 168 168 177 179 182 176 161 161 168 170 176 175 174 183 164 164 178 215 201 211 239 51 156 171 162 168 130 183 67 259 186 177 172 164 148 141 141 139 137 135 130 119 115 110 99 96 96
203 183 185 186 183 178 179 176 175 174 169 169 164 161 169 178 182 188 190 194 199 213 190 159 182 196 164 190 201 202 199 194 200 193 176 174 168 170 173 176 174 178 176 156 168 176 178 179 173 177 181 169 170 171 177 179 194 252 242 239 172 120 139 143 187 102 152 245 210 182 197 172 162 148 154 154 145 140 143 135 131 123 113 108 111
185 176 186 185 183 181 176 179 176 175 174 167 171 173 176 182 187 194 196 202 205 201 180 172 161 159 181 193 195 204 204 202 193 196 184 174 173 173 174 172 170 168 172 185 179 179 175 177 181 179 171 178 180 179 176 170 180 199 181 146 81 119 154 68 149 162 154 162 209 251 258 178 163 175 165 160 156 154 152 151 146 143 135 137 141
180 184 186 187 183 179 177 173 178 176 178 174 172 182 180 182 189 191 202 210 198 183 164 158 168 170 184 185 194 200 202 204 196 188 185 178 176 174 173 174 174 176 181 183 182 177 179 175 176 177 183 186 190 187 171 181 191 179 156 130 124 144 145 83 128 91 137 139 153 182 176 190 166 197 176 163 161 156 160 164 164 157 160 164 168
189 182 181 175 179 174 178 177 182 180 176 180 178 183 183 179 189 197 199 198 189 173 168 173 176 172 188 187 188 193 194 189 188 185 181 181 177 174 173 177 181 180 181 184 180 179 178 181 182 182 182 184 190 189 187 184 186 163 168 142 142 143 108 104 145 104 65 94 163 189 180 169 182 213 175 165 164 167 159 159 160 164 168 177 188
185 177 179 181 177 177 178 183 184 178 180 180 180 187 188 188 194 194 196 195 194 182 181 185 176 179 189 188 188 191 186 184 176 183 185 179 181 178 177 179 178 177 183 183 184 180 180 183 185 183 183 184 187 187 185 179 170 165 167 165 168 172 172 169 177 184 145 145 90 149 158 187 179 160 216 182 164 175 170 162 163 177 173 178 189